Track COSMOS 2478 (GLONASS) now! COSMOS 2478 (GLONASS) is classified as:
1 37938U 11071A 24325.28174528 -.00000054 00000-0 00000-0 0 9993 2 37938 65.7662 334.1689 0017915 224.8493 132.6274 2.13015438100916